Wetterdaten Herbst 2019

Datum T max T min Regen
01.09.2019 23.8 °C 18.2 °C 0 mm
02.09.2019 20.8 °C 11.6 °C 0 mm
03.09.2019 22.9 °C 8.2 °C 0 mm
04.09.2019 25 °C 9.1 °C 0 mm
05.09.2019 18.6 °C 14.5 °C 0 mm
06.09.2019 19.1 °C 9.4 °C 0 mm
07.09.2019 17.4 °C 9.1 °C 0.2 mm
08.09.2019 12.9 °C 10.8 °C 9.4 mm
09.09.2019 15.9 °C 10.3 °C 2 mm
10.09.2019 18.2 °C 7.8 °C 0 mm
11.09.2019 20.8 °C 6.8 °C 0 mm
12.09.2019 23.7 °C 14.3 °C 0 mm
13.09.2019 22.7 °C 11.8 °C 0 mm
14.09.2019 23.3 °C 13.3 °C 0 mm
15.09.2019 25.7 °C 12.1 °C 0 mm
16.09.2019 24.9 °C 10.7 °C 0 mm
17.09.2019 18.6 °C 12.9 °C 0 mm
18.09.2019 16.9 °C 6.2 °C 0 mm
19.09.2019 15.9 °C 4.2 °C 0 mm
20.09.2019 17.6 °C 3 °C 0 mm
21.09.2019 22.7 °C 4.2 °C 0 mm
22.09.2019 22.3 °C 7.8 °C 0 mm
23.09.2019 18.1 °C 12.7 °C 14.4 mm
24.09.2019 18.3 °C 9.9 °C 0.2 mm
25.09.2019 17.6 °C 13.4 °C 3.2 mm
26.09.2019 18.6 °C 12.7 °C 1.4 mm
27.09.2019 18.6 °C 12.6 °C 7.8 mm
28.09.2019 17.6 °C 11.4 °C 1.4 mm
01.10.2019 20.4 °C 8.6 °C 0.6 mm
02.10.2019 17.3 °C 8.2 °C 3.6 mm
03.10.2019 12.9 °C 4.7 °C 0 mm
04.10.2019 13.5 °C 6.5 °C 3.2 mm
05.10.2019 11.7 °C 8.7 °C 6 mm
06.10.2019 11.2 °C 7.8 °C 11.2 mm
07.10.2019 12.9 °C 8.2 °C 0.2 mm
08.10.2019 16 °C 10.3 °C 6.6 mm
09.10.2019 14.8 °C 8.9 °C 3 mm
10.10.2019 14.3 °C 8.5 °C 5.8 mm
11.10.2019 19.1 °C 8.5 °C 0 mm
12.10.2019 20.9 °C 8.9 °C 0 mm
13.10.2019 24.5 °C 12.1 °C 0 mm
14.10.2019 23.4 °C 10.3 °C 0 mm
15.10.2019 18.9 °C 10.8 °C 9.6 mm
16.10.2019 16.9 °C 9.2 °C 1 mm
17.10.2019 18.1 °C 10.2 °C 3.8 mm
18.10.2019 17.8 °C 11.4 °C 6 mm
19.10.2019 14.4 °C 11.4 °C 8.8 mm
20.10.2019 19.4 °C 10.8 °C 1 mm
21.10.2019 17.9 °C 10.9 °C 0.2 mm
22.10.2019 14.7 °C 9.3 °C 0 mm
23.10.2019 17.3 °C 8.8 °C 0 mm
24.10.2019 17.6 °C 8.9 °C 0 mm
25.10.2019 16.8 °C 9.3 °C 0 mm
26.10.2019 17.9 °C 7 °C 0 mm
27.10.2019 19.3 °C 7.4 °C 7.4 mm
28.10.2019 9.7 °C 6.2 °C 0.6 mm
29.10.2019 9.2 °C 5.6 °C 0 mm
30.10.2019 9.6 °C 2.3 °C 0 mm
31.10.2019 9.7 °C 0.3 °C 0 mm
01.11.2019 12.7 °C 5.8 °C 2.4 mm
02.11.2019 18.2 °C 11.1 °C 1.6 mm
03.11.2019 12.9 °C 9.8 °C 9.8 mm
04.11.2019 13.5 °C 9.2 °C 0.6 mm
05.11.2019 11.6 °C 5.9 °C 0 mm
06.11.2019 11 °C 5.9 °C 0.2 mm
07.11.2019 10.8 °C 5 °C 0.6 mm
08.11.2019 6.6 °C 3.8 °C 18.6 mm
09.11.2019 8.3 °C 3.4 °C 0.8 mm
14.11.2019 8.2 °C -0.9 °C 0 mm
15.11.2019 4.9 °C 0.1 °C 0.2 mm
16.11.2019 7.2 °C 0.6 °C 0.4 mm
17.11.2019 4 °C 0.9 °C 0.8 mm
18.11.2019 5.7 °C 2.4 °C 0 mm
19.11.2019 6.8 °C 0.3 °C 0 mm
20.11.2019 3.6 °C 0.3 °C 0 mm
21.11.2019 7.3 °C 0.8 °C 0 mm
22.11.2019 6.9 °C 0.5 °C 0 mm
23.11.2019 9.2 °C -0.7 °C 0 mm
24.11.2019 5.9 °C 0.9 °C 0 mm
25.11.2019 7.4 °C 0.6 °C 0.2 mm
26.11.2019 12.3 °C 4.4 °C 0 mm
27.11.2019 13.1 °C 4.9 °C 0.2 mm
28.11.2019 11.3 °C 8.3 °C 1.4 mm
29.11.2019 9.1 °C 2.6 °C 2.4 mm
30.11.2019 5.3 °C -1 °C 0 mm
 Hinweis zur Datenqualität
∅ Temperatur

11 °C

Abweichung vom Mittel

+0.7 °C

Niederschlag

158.8 mm

Abweichung vom Mittel

104 %

25.7 °C

Lufttemperatur
15.09.2019

1033 hPa

Luftdruck
13.09.2019

22.7 km/h

Windböen
04.11.2019

158.8 mm

Niederschlag
 

-1 °C

Lufttemperatur
30.11.2019

-0.5 °C

Bodentemperatur 5cm
01.01.1970

987 hPa

Luftdruck
03.11.2019
 Hinweis zur Datenqualität